• In Czech Republic
  • List of Countries
  • For 7 days
  • Water Temperature
  • Satellite Maps
  • Weather Map
  • Weather Widgets
  • user-avatar
    Login

    Hourly Weather Escaldes-Engordany

    Today, 11 December, Monday

    Time Temperature Precipitation Wind Pressure Humidity
    00:00 +1°C° 0.2 mm 4 mps 621 mmHg 91%
    01:00 +1°C° 0.8 mm 4 mps 621 mmHg 91%
    02:00 +1°C° 0.8 mm 4 mps 620 mmHg 91%
    03:00 +1°C° 0.8 mm 4 mps 619 mmHg 91%
    04:00 +1°C° 1.4 mm 4 mps 619 mmHg 91%
    05:00 +1°C° 1.4 mm 4 mps 618 mmHg 91%
    06:00 +1°C° 1.4 mm 4 mps 618 mmHg 91%
    07:00 +2°C° 1.4 mm 3 mps 619 mmHg 93%
    08:00 +2°C° 1.4 mm 3 mps 619 mmHg 94%
    09:00 +2°C° 1.4 mm 3 mps 619 mmHg 96%
    10:00 +2°C° 0.7 mm 3 mps 620 mmHg 94%
    11:00 +2°C° 0.7 mm 3 mps 620 mmHg 93%
    12:00 +1°C° 0.7 mm 3 mps 621 mmHg 92%
    13:00 +2°C° 0.8 mm 2 mps 621 mmHg 92%
    14:00 +2°C° 0.8 mm 2 mps 621 mmHg 91%
    15:00 +1°C° 0.8 mm 2 mps 621 mmHg 91%
    16:00 +2°C° 0.3 mm 1 mps 622 mmHg 92%
    17:00 +1°C° 0.3 mm 1 mps 622 mmHg 93%
    18:00 0°C° 0.3 mm 1 mps 623 mmHg 94%
    19:00 0°C° 0.1 mm 1 mps 624 mmHg 94%
    20:00 0°C° 0.1 mm 1 mps 624 mmHg 93%
    21:00 -1°C° 0.1 mm 1 mps 625 mmHg 92%
    22:00 -1°C° 0.1 mm 1 mps 626 mmHg 92%
    23:00 -1°C° 0.1 mm 1 mps 627 mmHg 92%

    Tomorrow, 12 December, Tuesday

    Time Temperature Precipitation Wind Pressure Humidity
    00:00 -1°C° 0.1 mm 1 mps 627 mmHg 92%
    01:00 -2°C° 0 mm 1 mps 628 mmHg 91%
    02:00 -2°C° 0 mm 1 mps 628 mmHg 91%
    03:00 -3°C° 0 mm 1 mps 629 mmHg 90%
    04:00 -3°C° 0.1 mm 1 mps 629 mmHg 90%
    05:00 -3°C° 0.1 mm 1 mps 630 mmHg 91%
    06:00 -3°C° 0.1 mm 1 mps 631 mmHg 91%
    07:00 -2°C° 0.2 mm 1 mps 632 mmHg 89%
    08:00 -1°C° 0.2 mm 1 mps 633 mmHg 87%
    09:00 -1°C° 0.2 mm 1 mps 634 mmHg 86%
    10:00 -2°C° 0 mm 2 mps 634 mmHg 81%
    11:00 -1°C° 0 mm 2 mps 635 mmHg 77%
    12:00 +1°C° 0 mm 2 mps 636 mmHg 72%
    13:00 -1°C° 0 mm 2 mps 636 mmHg 73%
    14:00 -1°C° 0 mm 2 mps 636 mmHg 73%
    15:00 -1°C° 0 mm 2 mps 636 mmHg 74%
    16:00 -3°C° 0 mm 2 mps 636 mmHg 76%
    17:00 -3°C° 0 mm 1 mps 636 mmHg 77%
    18:00 -6°C° 0 mm 1 mps 636 mmHg 79%
    19:00 -7°C° 0 mm 2 mps 636 mmHg 75%
    20:00 -7°C° 0 mm 2 mps 637 mmHg 71%
    21:00 -7°C° 0 mm 2 mps 637 mmHg 67%
    22:00 -7°C° 0 mm 2 mps 638 mmHg 67%
    23:00 -6°C° 0 mm 1 mps 638 mmHg 67%

    Day after tomorrow, 13 December, Wednesday

    Time Temperature Precipitation Wind Pressure Humidity
    00:00 -6°C° 0 mm 1 mps 638 mmHg 68%
    01:00 -6°C° 0 mm 1 mps 638 mmHg 68%
    02:00 -6°C° 0 mm 1 mps 638 mmHg 68%
    03:00 -6°C° 0 mm 1 mps 638 mmHg 68%
    04:00 -6°C° 0 mm 1 mps 638 mmHg 69%
    05:00 -6°C° 0 mm 1 mps 638 mmHg 70%
    06:00 -6°C° 0 mm 1 mps 638 mmHg 70%
    07:00 -3°C° 0 mm 1 mps 639 mmHg 68%
    08:00 -2°C° 0 mm 1 mps 640 mmHg 67%
    09:00 0°C° 0 mm 1 mps 640 mmHg 65%
    10:00 +1°C° 0 mm 1 mps 640 mmHg 65%
    11:00 +3°C° 0 mm 1 mps 641 mmHg 65%
    12:00 +5°C° 0 mm 1 mps 641 mmHg 65%
    13:00 +4°C° 0 mm 1 mps 640 mmHg 68%
    14:00 +4°C° 0 mm 1 mps 640 mmHg 71%
    15:00 +4°C° 0 mm 1 mps 640 mmHg 74%
    16:00 +2°C° 0 mm 1 mps 639 mmHg 77%
    17:00 +1°C° 0 mm 1 mps 639 mmHg 79%
    18:00 0°C° 0 mm 1 mps 638 mmHg 81%
    19:00 0°C° 0 mm 1 mps 638 mmHg 80%
    20:00 +1°C° 0 mm 1 mps 639 mmHg 79%
    21:00 +2°C° 0 mm 1 mps 639 mmHg 78%
    22:00 +2°C° 0 mm 1 mps 639 mmHg 77%
    23:00 +2°C° 0 mm 1 mps 638 mmHg 77%

    14 December, Thursday

    Time Temperature Precipitation Wind Pressure Humidity
    00:00 +2°C° 0 mm 1 mps 638 mmHg 77%
    01:00 +2°C° 0.1 mm 1 mps 638 mmHg 79%
    02:00 +2°C° 0.1 mm 1 mps 637 mmHg 80%
    03:00 +2°C° 0.1 mm 1 mps 637 mmHg 82%
    04:00 +2°C° 0.2 mm 1 mps 637 mmHg 83%
    05:00 +3°C° 0.2 mm 1 mps 637 mmHg 84%
    06:00 +3°C° 0.2 mm 1 mps 637 mmHg 85%
    07:00 +4°C° 0.2 mm 1 mps 637 mmHg 86%
    08:00 +4°C° 0.2 mm 1 mps 637 mmHg 86%
    09:00 +4°C° 0.2 mm 1 mps 637 mmHg 87%
    10:00 +5°C° 0.5 mm 1 mps 637 mmHg 87%
    11:00 +5°C° 0.5 mm 1 mps 637 mmHg 87%
    12:00 +6°C° 0.5 mm 1 mps 637 mmHg 86%
    13:00 +6°C° 0.1 mm 1 mps 636 mmHg 88%
    14:00 +6°C° 0.1 mm 1 mps 636 mmHg 89%
    15:00 +6°C° 0.1 mm 1 mps 635 mmHg 91%
    16:00 +5°C° 0 mm 1 mps 635 mmHg 92%
    17:00 +4°C° 0 mm 1 mps 635 mmHg 93%
    18:00 +3°C° 0 mm 1 mps 634 mmHg 94%
    19:00 +3°C° 0 mm 1 mps 634 mmHg 92%
    20:00 +3°C° 0 mm 1 mps 634 mmHg 91%
    21:00 +4°C° 0 mm 1 mps 634 mmHg 89%
    22:00 +3°C° 0 mm 1 mps 634 mmHg 90%
    23:00 +3°C° 0 mm 1 mps 633 mmHg 90%

    15 December, Friday

    Time Temperature Precipitation Wind Pressure Humidity
    00:00 +3°C° 0 mm 1 mps 633 mmHg 91%
    01:00 +3°C° 0.2 mm 1 mps 633 mmHg 92%
    02:00 +3°C° 0.2 mm 1 mps 632 mmHg 93%
    03:00 +3°C° 0.2 mm 1 mps 632 mmHg 94%
    04:00 +3°C° 0.5 mm 1 mps 632 mmHg 94%
    05:00 +3°C° 0.5 mm 1 mps 632 mmHg 95%
    06:00 +3°C° 0.5 mm 1 mps 631 mmHg 95%
    07:00 +3°C° 0.2 mm 1 mps 631 mmHg 94%
    08:00 +3°C° 0.2 mm 1 mps 631 mmHg 94%
    09:00 +4°C° 0.2 mm 1 mps 631 mmHg 93%
    10:00 +3°C° 0.4 mm 2 mps 631 mmHg 90%
    11:00 +2°C° 0.4 mm 3 mps 631 mmHg 87%
    12:00 +1°C° 0.4 mm 4 mps 631 mmHg 83%
    13:00 +1°C° 1 mm 4 mps 631 mmHg 82%
    14:00 0°C° 1 mm 4 mps 631 mmHg 81%
    15:00 -1°C° 1 mm 4 mps 630 mmHg 80%
    16:00 -2°C° 0.1 mm 4 mps 630 mmHg 82%
    17:00 -3°C° 0.1 mm 4 mps 630 mmHg 83%
    18:00 -4°C° 0.1 mm 3 mps 630 mmHg 84%
    19:00 -5°C° 0.1 mm 3 mps 631 mmHg 84%
    20:00 -5°C° 0.1 mm 3 mps 631 mmHg 83%
    21:00 -6°C° 0.1 mm 3 mps 631 mmHg 83%
    22:00 -6°C° 0.2 mm 3 mps 632 mmHg 83%
    23:00 -5°C° 0.2 mm 3 mps 632 mmHg 84%

    16 December, Saturday

    Time Temperature Precipitation Wind Pressure Humidity
    00:00 -5°C° 0.2 mm 3 mps 632 mmHg 84%
    01:00 -6°C° 0 mm 3 mps 632 mmHg 84%
    02:00 -7°C° 0 mm 3 mps 632 mmHg 83%
    03:00 -7°C° 0 mm 3 mps 632 mmHg 83%
    04:00 -7°C° 0 mm 3 mps 632 mmHg 82%
    05:00 -8°C° 0 mm 3 mps 633 mmHg 82%
    06:00 -8°C° 0 mm 3 mps 633 mmHg 81%
    07:00 -7°C° 0 mm 3 mps 634 mmHg 78%
    08:00 -6°C° 0 mm 3 mps 634 mmHg 76%
    09:00 -5°C° 0 mm 3 mps 635 mmHg 73%
    10:00 -4°C° 0 mm 4 mps 636 mmHg 70%
    11:00 -3°C° 0 mm 4 mps 636 mmHg 68%
    12:00 -3°C° 0 mm 4 mps 636 mmHg 65%
    13:00 -3°C° 0 mm 4 mps 636 mmHg 65%
    14:00 -2°C° 0 mm 3 mps 636 mmHg 66%
    15:00 -2°C° 0 mm 3 mps 636 mmHg 67%
    16:00 -5°C° 0 mm 3 mps 636 mmHg 69%
    17:00 -6°C° 0 mm 3 mps 636 mmHg 72%
    18:00 -8°C° 0 mm 3 mps 636 mmHg 75%
    19:00 -8°C° 0 mm 3 mps 636 mmHg 74%
    20:00 -8°C° 0 mm 3 mps 636 mmHg 73%
    21:00 -8°C° 0 mm 3 mps 637 mmHg 72%
    22:00 -7°C° 0 mm 2 mps 637 mmHg 71%
    23:00 -8°C° 0 mm 2 mps 637 mmHg 70%
    Show more